Location: Bogis-Bossey
(46.3500°N, 6.1667°E)
Time: 18:28:34
(UTC+00:00)

Ariane Rocket - Pass Details

Date: 17 August 2022
Orbit: 760 x 768 km, 98.6° (Epoch: 01 October)

Event Time Altitude Azimuth Distance (km) Brightness Sun altitude
Exits shadow 20:03:15 16° 151° (SSE) 1,894 4.5 -13.3°
Maximum altitude 20:07:13 65° 72° (ENE) 835 3.0 -13.8°
Drops below altitude 10° 20:12:14 10° 351° (N) 2,303 6.2 -14.5°
Sets 20:14:34 0° 349° (N) 3,233 7.1 -14.8°
